EW7912 Weather Reports


time (UTC)temp
C
wind
direction
speed
KPH
gust
KPH
rain 1hr
cm
rain 24hr
cm
rain mn
cm
humidity
%
barometer
mb
20260505122611 21 245 4.8 14.5 0.00 0.00 0.00 88 1007.4
20260505122105 21 232 6.4 16.1 0.00 0.00 0.00 88 1007.3
20260505121559 21 248 4.8 16.1 0.00 0.00 0.00 88 1007.3
20260505121053 21 228 4.8 16.1 0.00 0.00 0.00 88 1007.3
20260505120547 21 205 4.8 16.1 0.00 0.00 0.00 88 1007.2
20260505120056 21 225 3.2 14.5 0.00 0.00 0.00 88 1007.0
20260505115543 21 269 3.2 9.7 0.00 0.00 0.00 88 1006.8
20260505115043 21 213 4.8 12.9 0.00 0.00 0.00 88 1006.8
20260505114542 21 236 4.8 12.9 0.00 0.00 0.00 88 1006.9
20260505114308 21 207 3.2 12.9 0.00 0.00 0.00 88 1006.8
20260505113541 21 209 4.8 14.5 0.00 0.00 0.00 88 1006.8
20260505113041 21 238 6.4 16.1 0.00 0.00 0.00 88 1006.9
20260505112542 21 211 4.8 16.1 0.00 0.00 0.00 88 1006.9
20260505112041 21 225 3.2 12.9 0.00 0.00 0.00 88 1007.0
20260505111539 21 231 3.2 12.9 0.00 0.00 0.00 88 1007.0
20260505111039 21 216 3.2 12.9 0.00 0.00 0.00 88 1007.0
20260505110537 21 263 4.8 12.9 0.00 0.00 0.00 88 1007.0
20260505101955 20 259 4.8 16.1 0.00 0.00 0.00 88 1006.7
20260505101445 20 238 4.8 16.1 0.00 0.00 0.00 88 1006.8
20260505100456 20 213 4.8 19.3 0.00 0.00 0.00 88 1006.8
20260505095950 20 199 4.8 19.3 0.00 0.00 0.00 88 1006.7
20260505095444 20 233 4.8 20.9 0.00 0.00 0.00 88 1006.8
20260505094938 20 257 4.8 20.9 0.00 0.00 0.00 88 1006.7
20260505094434 20 309 4.8 20.9 0.00 0.00 0.00 88 1006.6
20260505093926 20 202 4.8 20.9 0.00 0.00 0.00 88 1006.6
20260505093423 20 223 3.2 12.9 0.00 0.00 0.00 88 1006.7
20260505092914 20 207 3.2 12.9 0.00 0.00 0.00 88 1006.7
20260505092408 20 273 4.8 12.9 0.00 0.00 0.00 88 1006.8
20260505091902 20 219 4.8 22.5 0.00 0.00 0.00 88 1006.8
20260505091852 20 221 4.8 16.1 0.00 0.00 0.00 88 1006.9
20260505090850 20 56 4.8 16.1 0.00 0.00 0.00 88 1007.0
20260505090344 20 279 4.8 16.1 0.00 0.00 0.00 88 1007.2
20260505085838 20 288 3.2 16.1 0.00 0.00 0.00 88 1007.1
20260505085333 20 143 3.2 9.7 0.00 0.00 0.00 88 1007.2
20260505084827 20 216 3.2 14.5 0.00 0.00 0.00 88 1007.3
20260505084320 20 133 3.2 14.5 0.00 0.00 0.00 88 1007.3
20260505084034 20 184 3.2 14.5 0.00 0.00 0.00 87 1007.5
20260505083308 20 192 3.2 16.1 0.00 0.00 0.00 87 1007.5
20260505082802 20 180 3.2 16.1 0.00 0.00 0.00 87 1007.5
20260505082519 20 34 3.2 11.3 0.00 0.00 0.00 87 1007.5
20260505081750 20 207 3.2 11.3 0.00 0.00 0.00 87 1007.6
20260505081244 20 238 3.2 8.0 0.00 0.00 0.00 87 1007.6
20260505080737 20 211 3.2 9.7 0.00 0.00 0.00 87 1007.7
20260505080232 20 242 3.2 9.7 0.00 0.00 0.00 87 1007.6
20260505075726 20 215 3.2 11.3 0.00 0.00 0.00 87 1007.7
20260505075220 20 179 1.6 11.3 0.00 0.00 0.00 87 1007.7
20260505074714 20 235 3.2 8.0 0.00 0.00 0.00 86 1007.8
20260505074207 20 269 3.2 8.0 0.00 0.00 0.00 86 1007.8
20260505073933 20 234 3.2 11.3 0.00 0.00 0.00 86 1007.9
20260505073158 20 204 3.2 11.3 0.00 0.00 0.00 86 1008.0
20260505072650 20 218 3.2 9.7 0.00 0.00 0.00 86 1008.0
20260505072144 20 171 3.2 9.7 0.00 0.00 0.00 86 1008.0
20260505071638 20 193 3.2 8.0 0.00 0.00 0.00 86 1008.0
20260505071132 20 196 3.2 11.3 0.00 0.00 0.00 85 1008.0
20260505070626 20 243 4.8 11.3 0.00 0.00 0.00 85 1008.1
20260505070119 20 202 3.2 11.3 0.00 0.00 0.00 85 1008.1
20260505065614 20 223 1.6 8.0 0.00 0.00 0.00 85 1008.0
20260505065115 20 192 3.2 12.9 0.00 0.00 0.00 85 1008.0
20260505064615 20 355 3.2 12.9 0.00 0.00 0.00 85 1008.1
20260505064113 20 222 3.2 11.3 0.00 0.00 0.00 84 1008.3
20260505063611 20 244 3.2 11.3 0.00 0.00 0.00 84 1008.5
20260505063112 20 246 3.2 8.0 0.00 0.00 0.00 84 1008.6
20260505062840 20 212 3.2 16.1 0.00 0.00 0.00 84 1008.6
20260505062334 20 192 3.2 16.1 0.00 0.00 0.00 84 1008.6
20260505061611 20 219 3.2 9.7 0.00 0.00 0.00 84 1008.7
20260505061109 20 253 3.2 9.7 0.00 0.00 0.00 83 1008.6
20260505060609 20 200 3.2 9.7 0.00 0.00 0.00 83 1008.6
20260505060122 20 265 1.6 8.0 0.00 0.00 0.00 83 1008.5
20260505055609 20 140 1.6 6.4 0.00 0.00 0.00 83 1008.5
20260505055109 20 163 1.6 6.4 0.00 0.00 0.00 82 1008.6
20260505054607 21 234 1.6 6.4 0.00 0.00 0.00 82 1008.5
20260505054338 21 235 1.6 6.4 0.00 0.00 0.00 82 1008.7
20260505053607 21 135 1.6 9.7 0.00 0.00 0.00 82 1008.9
20260505053105 21 196 1.6 9.7 0.00 0.00 0.00 82 1008.9
20260505052605 21 221 1.6 11.3 0.00 0.00 0.00 81 1008.8
20260505052058 21 217 3.2 11.3 0.00 0.00 0.00 81 1008.7
20260505051817 21 213 3.2 11.3 0.00 0.00 0.00 81 1008.7
20260505051047 21 173 3.2 11.3 0.00 0.00 0.00 81 1008.9
20260505050541 21 196 1.6 9.7 0.00 0.00 0.00 81 1008.9
20260505041509 22 201 3.2 12.9 0.00 0.00 0.00 78 1008.7
20260505041229 22 180 1.6 6.4 0.00 0.00 0.00 78 1008.7
20260505040739 22 315 3.2 12.9 0.00 0.00 0.00 78 1008.8
20260505040006 22 204 4.8 16.1 0.00 0.00 0.00 78 1008.9
20260505035505 22 213 4.8 16.1 0.00 0.00 0.00 78 1009.1
20260505035006 22 242 3.2 11.3 0.00 0.00 0.00 77 1009.1
20260505034504 22 197 3.2 11.3 0.00 0.00 0.00 77 1009.0
20260505034003 22 168 3.2 9.7 0.00 0.00 0.00 77 1009.1
20260505033503 22 245 1.6 4.8 0.00 0.00 0.00 77 1009.0
20260505033004 22 80 1.6 6.4 0.00 0.00 0.00 76 1008.9
20260505032503 22 211 3.2 8.0 0.00 0.00 0.00 76 1008.7
20260505032001 22 266 3.2 8.0 0.00 0.00 0.00 76 1008.8
20260505031501 22 190 3.2 16.1 0.00 0.00 0.00 75 1008.6
20260505030959 22 109 3.2 16.1 0.00 0.00 0.00 75 1008.6
20260505030459 22 207 1.6 8.0 0.00 0.00 0.00 75 1008.5
20260505025959 22 189 1.6 11.3 0.00 0.00 0.00 75 1008.6
20260505025458 22 213 1.6 11.3 0.00 0.00 0.00 75 1008.6
20260505025220 22 202 3.2 9.7 0.00 0.00 0.00 74 1008.5
20260505024459 22 104 1.6 9.7 0.00 0.00 0.00 74 1008.5
20260505023959 22 236 1.6 9.7 0.00 0.00 0.00 73 1008.4
20260505023459 22 143 0.0 1.6 0.00 0.00 0.00 73 1008.5
20260505022955 22 337 0.0 1.6 0.00 0.00 0.00 72 1008.7
20260505022712 22 64 0.0 0.0 0.00 0.00 0.00 72 1008.6
20260505021954 22 139 0.0 0.0 0.00 0.00 0.00 71 1008.7
20260505021455 22 112 0.0 0.0 0.00 0.00 0.00 71 1008.7
20260505020955 22 130 0.0 0.0 0.00 0.00 0.00 71 1008.6
20260505020454 23 129 0.0 0.0 0.00 0.00 0.00 70 1008.6
20260505020220 23 129 0.0 0.0 0.00 0.00 0.00 70 1008.5
20260505015455 23 130 0.0 0.0 0.00 0.00 0.00 70 1008.5
20260505014955 23 130 0.0 0.0 0.00 0.00 0.00 69 1008.4
20260505014725 23 132 0.0 1.6 0.00 0.00 0.00 68 1008.4
20260505013954 23 270 0.0 1.6 0.00 0.00 0.00 68 1008.5
20260505013454 23 270 0.0 3.2 0.00 0.00 0.00 68 1008.3
20260505012954 23 269 0.0 3.2 0.00 0.00 0.00 67 1008.4
20260505012717 24 141 0.0 3.2 0.00 0.00 0.00 67 1008.3
20260505011955 24 124 0.0 3.2 0.00 0.00 0.00 66 1008.3
20260505011455 24 124 0.0 3.2 0.00 0.00 0.00 66 1008.2
20260505010955 24 133 0.0 3.2 0.00 0.00 0.00 65 1008.4
20260505010452 25 148 1.6 8.0 0.00 0.00 0.00 64 1008.4
20260505005946 25 148 1.6 8.0 0.00 0.00 0.00 64 1008.2
20260505005709 25 275 1.6 6.4 0.00 0.00 0.00 64 1008.3
20260505004934 25 202 1.6 6.4 0.00 0.00 0.00 63 1008.3
20260505004428 25 179 3.2 8.0 0.00 0.00 0.00 63 1008.2
20260505003921 25 219 3.2 8.0 0.00 0.00 0.00 63 1008.3
20260505003416 25 216 3.2 8.0 0.00 0.00 0.00 62 1008.2
20260505002910 25 250 1.6 6.4 0.00 0.00 0.00 62 1008.3
20260505002404 25 79 1.6 6.4 0.00 0.00 0.00 62 1008.2
20260505001858 25 246 1.6 6.4 0.00 0.00 0.00 61 1008.1
20260505001402 26 217 1.6 6.4 0.00 0.00 0.00 61 1008.2
20260505001107 26 224 1.6 9.7 0.00 0.00 0.00 60 1008.3
20260505000339 26 227 3.2 9.7 0.00 0.00 0.00 60 1008.4
20260504235834 26 44 1.6 6.4 0.00 0.00 0.00 60 1008.5
20260504235328 26 190 3.2 12.9 0.00 0.00 0.00 59 1008.5
20260504234822 26 221 4.8 12.9 0.00 0.00 0.00 58 1008.7
20260504234315 26 216 6.4 14.5 0.00 0.00 0.00 58 1008.8
20260504233810 26 232 4.8 14.5 0.00 0.00 0.00 57 1008.9
20260504233304 26 182 4.8 11.3 0.00 0.00 0.00 57 1009.0
20260504232758 26 196 4.8 12.9 0.00 0.00 0.00 57 1009.0
20260504232252 26 113 4.8 12.9 0.00 0.00 0.00 57 1008.9
20260504232002 26 220 4.8 11.3 0.00 0.00 0.00 58 1008.9
20260504231240 27 246 4.8 14.5 0.00 0.00 0.00 58 1008.9
20260504230735 27 223 4.8 14.5 0.00 0.00 0.00 58 1008.9
20260504230227 27 198 4.8 12.9 0.00 0.00 0.00 57 1009.0
20260504225721 27 247 4.8 14.5 0.00 0.00 0.00 57 1009.0
20260504225216 27 242 4.8 14.5 0.00 0.00 0.00 56 1009.0
20260504224711 27 201 3.2 11.3 0.00 0.00 0.00 57 1009.2
20260504224204 27 207 3.2 9.7 0.00 0.00 0.00 56 1009.1
20260504223658 27 85 3.2 11.3 0.00 0.00 0.00 57 1009.1
20260504223151 27 206 3.2 12.9 0.00 0.00 0.00 55 1009.2
20260504222912 27 205 4.8 12.9 0.00 0.00 0.00 56 1009.2
20260504222139 27 201 4.8 12.9 0.00 0.00 0.00 55 1009.3
20260504221633 27 290 4.8 12.9 0.00 0.00 0.00 54 1009.4
20260504221349 27 227 3.2 17.7 0.00 0.00 0.00 55 1009.4
20260504220848 27 238 4.8 17.7 0.00 0.00 0.00 55 1009.5
20260504220118 27 355 4.8 12.9 0.00 0.00 0.00 55 1009.5
20260504215832 27 288 4.8 14.5 0.00 0.00 0.00 56 1009.6
20260504215320 27 279 4.8 14.5 0.00 0.00 0.00 55 1009.8
20260504214558 27 69 4.8 12.9 0.00 0.00 0.00 55 1009.9
20260504214052 27 251 4.8 12.9 0.00 0.00 0.00 55 1010.0
20260504213546 27 201 4.8 16.1 0.00 0.00 0.00 55 1010.1
20260504213042 27 184 4.8 16.1 0.00 0.00 0.00 54 1010.2
20260504212540 27 157 4.8 14.5 0.00 0.00 0.00 54 1010.4
20260504212301 27 180 6.4 14.5 0.00 0.00 0.00 54 1010.3
20260504211538 27 180 4.8 14.5 0.00 0.00 0.00 52 1010.5
20260504211038 27 198 4.8 16.1 0.00 0.00 0.00 53 1010.6
20260504210538 27 184 4.8 16.1 0.00 0.00 0.00 53 1010.7
20260504210038 27 257 3.2 11.3 0.00 0.00 0.00 52 1010.8
20260504205537 27 213 4.8 12.9 0.00 0.00 0.00 51 1010.8
20260504205036 27 241 3.2 12.9 0.00 0.00 0.00 51 1010.9
20260504204536 27 209 3.2 14.5 0.00 0.00 0.00 52 1011.1
20260504204036 27 217 4.8 14.5 0.00 0.00 0.00 50 1011.0
20260504203536 27 57 4.8 16.1 0.00 0.00 0.00 50 1011.0
20260504203036 27 68 6.4 16.1 0.00 0.00 0.00 50 1011.3
20260504202536 27 234 6.4 16.1 0.00 0.00 0.00 51 1011.4
20260504202036 27 194 4.8 16.1 0.00 0.00 0.00 50 1011.2
20260504201538 27 206 4.8 14.5 0.00 0.00 0.00 52 1011.4
20260504201038 27 177 4.8 14.5 0.00 0.00 0.00 49 1011.5
20260504200537 27 111 4.8 12.9 0.00 0.00 0.00 49 1011.7
20260504200252 27 200 4.8 14.5 0.00 0.00 0.00 51 1012.0
20260504195525 27 194 4.8 14.5 0.00 0.00 0.00 50 1011.9
20260504195019 27 190 4.8 14.5 0.00 0.00 0.00 52 1012.0
20260504194738 27 172 6.4 16.1 0.00 0.00 0.00 50 1012.1
20260504194225 27 146 4.8 16.1 0.00 0.00 0.00 51 1012.2
20260504193502 27 219 4.8 16.1 0.00 0.00 0.00 52 1012.3
20260504192955 27 206 4.8 12.9 0.00 0.00 0.00 51 1012.4
20260504192449 27 247 4.8 14.5 0.00 0.00 0.00 51 1012.5
20260504191944 27 194 6.4 17.7 0.00 0.00 0.00 51 1012.5
20260504191438 27 222 4.8 20.9 0.00 0.00 0.00 50 1012.6
20260504191152 27 266 6.4 20.9 0.00 0.00 0.00 51 1012.7
20260504190425 26 307 6.4 16.1 0.00 0.00 0.00 51 1012.7
20260504185919 27 190 6.4 19.3 0.00 0.00 0.00 50 1012.8
20260504185413 27 190 6.4 19.3 0.00 0.00 0.00 52 1012.6
20260504184907 27 232 4.8 14.5 0.00 0.00 0.00 51 1012.7
20260504184625 26 286 4.8 16.1 0.00 0.00 0.00 52 1012.8
20260504183855 26 267 4.8 16.1 0.00 0.00 0.00 54 1013.0
20260504183349 26 208 4.8 12.9 0.00 0.00 0.00 53 1013.1
20260504182843 26 184 6.4 17.7 0.00 0.00 0.00 51 1013.2
20260504182557 26 288 4.8 17.7 0.00 0.00 0.00 52 1013.3
20260504181832 26 159 4.8 17.7 0.00 0.00 0.00 52 1013.4
20260504181544 26 182 4.8 16.1 0.00 0.00 0.00 51 1013.4
20260504180820 26 135 4.8 14.5 0.00 0.00 0.00 53 1013.3
20260504180314 26 215 4.8 16.1 0.00 0.00 0.00 52 1013.3
20260504175814 26 178 4.8 16.1 0.00 0.00 0.00 53 1013.4
20260504175314 26 98 4.8 14.5 0.00 0.00 0.00 53 1013.4
20260504174813 26 186 4.8 14.5 0.00 0.00 0.00 53 1013.4
20260504174310 26 190 4.8 14.5 0.00 0.00 0.00 53 1013.6
20260504173810 26 295 4.8 14.5 0.00 0.00 0.00 52 1013.8
20260504173310 25 213 4.8 16.1 0.00 0.00 0.00 53 1014.0
20260504172808 25 194 6.4 16.1 0.00 0.00 0.00 53 1014.0
20260504172308 25 198 4.8 11.3 0.00 0.00 0.00 55 1014.1
20260504171808 25 197 6.4 17.7 0.00 0.00 0.00 52 1014.2
20260504171308 25 197 6.4 19.3 0.00 0.00 0.00 53 1014.1
20260504170808 24 300 6.4 19.3 0.00 0.00 0.00 54 1014.0
20260504170308 24 184 6.4 16.1 0.00 0.00 0.00 56 1014.1
20260504160240 23 257 4.8 22.5 0.00 0.00 0.00 60 1015.0
20260504150727 21 220 6.4 14.5 0.00 0.00 0.00 64 1015.5
20260504150228 21 255 6.4 19.3 0.00 0.00 0.00 64 1015.7
20260504141228 19 274 4.8 16.1 0.00 0.00 0.00 70 1015.5
20260504140727 19 228 4.8 16.1 0.00 0.00 0.00 71 1015.4
20260504140227 19 159 4.8 12.9 0.00 0.00 0.00 72 1015.6
20260504130724 16 217 3.2 8.0 0.00 0.00 0.00 79 1015.5
20260504130448 15 203 3.2 8.0 0.00 0.00 0.00 79 1015.7